TimeCDT,TemperatureF,Dew PointF,Humidity,Sea Level PressureIn,VisibilityMPH,Wind Direction,Wind SpeedMPH,Gust SpeedMPH,PrecipitationIn,Events,Conditions,WindDirDegrees,DateUTC
12:15 AM,64.8,64.4,99,30.09,7.0,Calm,Calm,-,N/A,,Clear,0,2013-09-09 05:15:00
12:35 AM,64.6,63.9,98,30.09,7.0,Calm,Calm,-,N/A,,Clear,0,2013-09-09 05:35:00
12:55 AM,64.4,63.7,98,30.09,7.0,Calm,Calm,-,N/A,,Scattered Clouds,0,2013-09-09 05:55:00
1:15 AM,64.4,63.7,98,30.09,5.0,Calm,Calm,-,N/A,,Scattered Clouds,0,2013-09-09 06:15:00
1:35 AM,64.4,63.9,98,30.09,5.0,Calm,Calm,-,N/A,,Clear,0,2013-09-09 06:35:00
1:55 AM,64.0,63.5,98,30.09,7.0,Calm,Calm,-,N/A,,Scattered Clouds,0,2013-09-09 06:55:00
2:15 AM,63.7,63.3,99,30.09,5.0,Calm,Calm,-,N/A,,Scattered Clouds,0,2013-09-09 07:15:00
2:35 AM,63.9,63.1,97,30.09,5.0,Calm,Calm,-,N/A,,Scattered Clouds,0,2013-09-09 07:35:00
2:55 AM,63.5,63.3,99,30.09,1.2,Calm,Calm,-,N/A,,Mostly Cloudy,0,2013-09-09 07:55:00
3:15 AM,63.7,63.7,100,30.09,0.2,Calm,Calm,-,N/A,Fog,Fog,0,2013-09-09 08:15:00
3:35 AM,63.9,63.9,100,30.09,0.2,Calm,Calm,-,N/A,Fog,Fog,0,2013-09-09 08:35:00
3:55 AM,64.0,64.0,100,30.09,0.2,Calm,Calm,-,N/A,Fog,Fog,0,2013-09-09 08:55:00
4:15 AM,64.0,64.0,100,30.09,0.5,Calm,Calm,-,N/A,Fog,Fog,0,2013-09-09 09:15:00
4:35 AM,63.9,63.9,100,30.10,0.8,Calm,Calm,-,N/A,,Overcast,0,2013-09-09 09:35:00
4:55 AM,63.7,63.7,100,30.09,0.2,Calm,Calm,-,N/A,Fog,Fog,0,2013-09-09 09:55:00
5:15 AM,63.7,63.7,100,30.09,0.5,Calm,Calm,-,N/A,Fog,Fog,0,2013-09-09 10:15:00
5:35 AM,63.5,63.5,100,30.10,0.5,Calm,Calm,-,N/A,Fog,Fog,0,2013-09-09 10:35:00
5:55 AM,63.5,63.5,100,30.10,3.0,Calm,Calm,-,N/A,,Overcast,0,2013-09-09 10:55:00
6:15 AM,63.3,63.3,100,30.11,1.0,Calm,Calm,-,N/A,,Overcast,0,2013-09-09 11:15:00
6:35 AM,63.5,63.5,100,30.11,0.2,Calm,Calm,-,N/A,Fog,Fog,0,2013-09-09 11:35:00
6:55 AM,63.5,63.5,100,30.12,0.2,Calm,Calm,-,N/A,Fog,Fog,0,2013-09-09 11:55:00
7:15 AM,63.5,63.5,100,30.12,0.5,Calm,Calm,-,N/A,Fog,Fog,0,2013-09-09 12:15:00
7:35 AM,63.7,63.7,100,30.12,0.2,Calm,Calm,-,N/A,Fog,Fog,0,2013-09-09 12:35:00
7:55 AM,63.9,63.9,100,30.13,0.2,Calm,Calm,-,N/A,Fog,Fog,0,2013-09-09 12:55:00
8:15 AM,64.4,64.4,100,30.12,0.2,Calm,Calm,-,N/A,Fog,Fog,0,2013-09-09 13:15:00
8:35 AM,64.2,64.2,100,30.13,0.5,Calm,Calm,-,N/A,Fog,Fog,0,2013-09-09 13:35:00
8:55 AM,64.8,64.6,99,30.13,3.0,Calm,Calm,-,N/A,,Overcast,0,2013-09-09 13:55:00
9:15 AM,67.5,65.8,95,30.13,7.0,Calm,Calm,-,N/A,,Mostly Cloudy,0,2013-09-09 14:15:00
9:35 AM,68.7,66.2,92,30.14,10.0,Calm,Calm,-,N/A,,Scattered Clouds,0,2013-09-09 14:35:00
9:55 AM,71.1,67.3,88,30.14,10.0,Calm,Calm,-,N/A,,Clear,0,2013-09-09 14:55:00
10:15 AM,73.6,67.6,82,30.13,10.0,Calm,Calm,-,N/A,,Clear,0,2013-09-09 15:15:00
10:35 AM,76.1,68.7,78,30.13,10.0,Calm,Calm,-,N/A,,Clear,0,2013-09-09 15:35:00
10:55 AM,77.7,68.4,73,30.13,10.0,SSW,3.5,-,N/A,,Clear,210,2013-09-09 15:55:00
11:15 AM,81.7,68.7,65,30.13,10.0,SSE,3.5,-,N/A,,Clear,150,2013-09-09 16:15:00
11:35 AM,82.4,68.5,63,30.13,10.0,SSW,4.6,-,N/A,,Clear,210,2013-09-09 16:35:00
11:55 AM,82.4,68.2,62,30.12,10.0,SSW,4.6,-,N/A,,Clear,200,2013-09-09 16:55:00
12:15 PM,83.8,67.8,58,30.12,10.0,South,5.8,-,N/A,,Clear,170,2013-09-09 17:15:00
12:35 PM,84.2,68.2,58,30.12,10.0,SSE,4.6,-,N/A,,Clear,150,2013-09-09 17:35:00
12:55 PM,84.7,66.6,54,30.12,10.0,South,5.8,-,N/A,,Clear,190,2013-09-09 17:55:00
1:15 PM,85.5,65.8,52,30.12,10.0,SSW,4.6,-,N/A,,Clear,210,2013-09-09 18:15:00
1:35 PM,86.0,66.9,53,30.11,10.0,SSE,4.6,-,N/A,,Clear,160,2013-09-09 18:35:00
1:55 PM,86.0,66.6,52,30.11,10.0,SSE,3.5,-,N/A,,Clear,160,2013-09-09 18:55:00
2:15 PM,85.5,66.7,53,30.10,10.0,SSW,4.6,-,N/A,,Clear,200,2013-09-09 19:15:00
2:35 PM,85.6,67.3,54,30.09,10.0,South,4.6,-,N/A,,Clear,190,2013-09-09 19:35:00
2:55 PM,86.2,67.3,53,30.09,10.0,SW,5.8,-,N/A,,Clear,230,2013-09-09 19:55:00
3:15 PM,86.2,66.7,52,30.08,10.0,SSE,4.6,-,N/A,,Clear,160,2013-09-09 20:15:00
3:35 PM,86.0,66.4,52,30.08,10.0,South,4.6,-,N/A,,Clear,180,2013-09-09 20:35:00
3:55 PM,86.0,67.3,53,30.08,10.0,South,4.6,-,N/A,,Clear,170,2013-09-09 20:55:00
4:15 PM,86.2,67.5,53,30.08,10.0,South,6.9,-,N/A,,Clear,180,2013-09-09 21:15:00
4:35 PM,86.0,67.8,54,30.08,10.0,SW,5.8,-,N/A,,Clear,220,2013-09-09 21:35:00
4:55 PM,85.5,67.3,54,30.07,10.0,South,4.6,-,N/A,,Clear,190,2013-09-09 21:55:00
5:15 PM,85.1,67.8,56,30.08,10.0,SSW,4.6,-,N/A,,Clear,210,2013-09-09 22:15:00
5:35 PM,84.2,69.3,61,30.08,10.0,Calm,Calm,-,N/A,,Clear,0,2013-09-09 22:35:00
5:55 PM,81.7,71.8,72,30.08,10.0,Calm,Calm,-,N/A,,Clear,0,2013-09-09 22:55:00
6:15 PM,79.2,71.6,78,30.08,10.0,WSW,3.5,-,N/A,,Clear,250,2013-09-09 23:15:00
6:35 PM,77.9,70.9,79,30.09,10.0,Calm,Calm,-,N/A,,Clear,0,2013-09-09 23:35:00
6:55 PM,77.0,70.5,80,30.10,10.0,WSW,4.6,-,N/A,,Clear,250,2013-09-09 23:55:00
7:15 PM,75.6,69.8,82,30.10,10.0,West,6.9,-,N/A,,Clear,270,2013-09-10 00:15:00
7:35 PM,74.8,69.6,84,30.11,10.0,West,4.6,-,N/A,,Clear,280,2013-09-10 00:35:00
7:55 PM,73.8,69.3,86,30.12,10.0,Calm,Calm,-,N/A,,Clear,0,2013-09-10 00:55:00
8:15 PM,73.0,68.9,87,30.12,10.0,Calm,Calm,-,N/A,,Clear,0,2013-09-10 01:15:00
8:35 PM,72.7,68.5,87,30.12,10.0,Calm,Calm,-,N/A,,Clear,0,2013-09-10 01:35:00
8:55 PM,72.0,68.5,89,30.12,10.0,Calm,Calm,-,N/A,,Clear,0,2013-09-10 01:55:00
9:15 PM,71.8,68.0,88,30.12,10.0,Calm,Calm,-,N/A,,Clear,0,2013-09-10 02:15:00
9:35 PM,70.7,68.0,91,30.14,10.0,Calm,Calm,-,N/A,,Clear,0,2013-09-10 02:35:00
9:55 PM,70.5,68.7,94,30.14,7.0,Calm,Calm,-,N/A,,Clear,0,2013-09-10 02:55:00
10:15 PM,70.0,68.0,93,30.15,10.0,Calm,Calm,-,N/A,,Clear,0,2013-09-10 03:15:00
10:35 PM,69.4,68.0,95,30.15,7.0,Calm,Calm,-,N/A,,Clear,0,2013-09-10 03:35:00
10:55 PM,69.1,67.6,95,30.16,7.0,Calm,Calm,-,N/A,,Clear,0,2013-09-10 03:55:00
11:15 PM,68.9,67.6,96,30.16,7.0,Calm,Calm,-,N/A,,Clear,0,2013-09-10 04:15:00
11:35 PM,68.7,67.5,96,30.16,7.0,Calm,Calm,-,N/A,,Clear,0,2013-09-10 04:35:00
11:55 PM,68.2,67.3,97,30.17,7.0,Calm,Calm,-,N/A,,Clear,0,2013-09-10 04:55:00